GW3958 Weather Reports


time (UTC)temp
C
wind
direction
speed
KPH
gust
KPH
rain 1hr
cm
rain 24hr
cm
rain mn
cm
humidity
%
barometer
mb
20260508014514 7 45 0.0 4.8 0.00 0.08 0.00 90 1015.1
20260508013017 7 352 0.0 1.6 0.00 0.08 0.00 90 1015.3
20260508011522 7 352 0.0 1.6 0.00 0.08 0.00 90 1015.3
20260508010005 7 37 0.0 1.6 0.00 0.08 0.00 90 1015.2
20260508004513 7 36 0.0 1.6 0.00 0.08 0.00 90 1015.2
20260508003014 7 38 0.0 1.6 0.00 0.08 0.00 90 1015.1
20260508000025 7 44 0.0 1.6 0.00 0.10 0.00 89 1015.2
20260507231522 7 58 0.0 0.0 0.00 0.10 0.00 89 1015.4
20260507230020 8 58 0.0 1.6 0.00 0.10 0.00 89 1015.4
20260507224531 8 65 0.0 1.6 0.00 0.10 0.00 89 1015.3
20260507223013 8 96 0.0 1.6 0.00 0.10 0.00 90 1015.3
20260507221515 7 96 0.0 0.0 0.00 0.10 0.00 90 1015.3
20260507220021 7 96 0.0 1.6 0.00 0.10 0.00 90 1015.4
20260507214522 7 52 0.0 3.2 0.00 0.10 0.10 90 1015.3
20260507213024 7 43 0.0 3.2 0.00 0.10 0.10 91 1015.3
20260507211528 7 46 0.0 4.8 0.00 0.10 0.10 90 1015.2
20260507203028 8 8 0.0 8.0 0.00 0.10 0.10 90 1015.1
20260507201527 8 46 0.0 6.4 0.00 0.10 0.10 90 1014.8
20260507200028 8 43 0.0 3.2 0.00 0.10 0.10 90 1014.7
20260507191524 8 328 1.6 9.7 0.00 0.10 0.10 89 1014.4
20260507190024 8 302 3.2 9.7 0.00 0.10 0.10 88 1014.2
20260507184525 9 26 0.0 9.7 0.00 0.10 0.10 88 1014.0
20260507183026 10 49 3.2 6.4 0.00 0.10 0.10 86 1013.7
20260507181528 10 39 3.2 11.3 0.00 0.10 0.10 85 1013.5
20260507180027 10 39 0.0 4.8 0.00 0.10 0.10 83 1013.3
20260507174524 11 34 1.6 4.8 0.00 0.10 0.10 82 1013.2
20260507173031 11 48 0.0 1.6 0.00 0.10 0.10 81 1013.1
20260507171507 11 37 0.0 3.2 0.00 0.10 0.10 81 1012.9
20260507170005 11 31 1.6 8.0 0.00 0.10 0.10 81 1012.8
20260507164504 12 42 1.6 12.9 0.00 0.10 0.10 78 1012.8
20260507163007 13 42 4.8 12.9 0.00 0.10 0.10 74 1012.4
20260507161503 15 61 1.6 11.3 0.00 0.10 0.10 67 1012.0
20260507160001 16 40 1.6 14.5 0.00 0.10 0.10 53 1011.7
20260507154502 17 188 4.8 14.5 0.00 0.10 0.10 48 1011.6
20260507153001 17 188 1.6 8.0 0.00 0.10 0.10 48 1011.5
20260507151501 18 309 3.2 12.9 0.00 0.10 0.10 45 1011.5
20260507150012 18 288 4.8 12.9 0.00 0.10 0.10 43 1011.5
20260507144506 20 188 0.0 6.4 0.00 0.10 0.10 43 1011.4
20260507143006 18 188 4.8 11.3 0.00 0.10 0.10 46 1011.5
20260507141504 17 243 1.6 14.5 0.00 0.10 0.10 46 1011.6
20260507140005 18 335 4.8 12.9 0.00 0.10 0.10 46 1011.6
20260507133007 18 94 3.2 14.5 0.00 0.10 0.10 47 1011.5
20260507131504 17 188 4.8 11.3 0.00 0.10 0.10 50 1011.6
20260507130005 18 150 3.2 12.9 0.00 0.10 0.10 45 1011.6
20260507121506 18 42 4.8 12.9 0.00 0.10 0.10 49 1011.6
20260507120010 18 188 1.6 17.7 0.00 0.10 0.10 54 1011.6
20260507114506 17 188 3.2 16.1 0.00 0.10 0.10 53 1011.8
20260507110012 17 188 3.2 12.9 0.00 0.10 0.10 58 1011.7
20260507104507 17 188 4.8 16.1 0.00 0.10 0.10 57 1011.5
20260507103013 16 188 4.8 14.5 0.00 0.10 0.10 61 1011.4
20260507101516 15 188 6.4 16.1 0.00 0.10 0.10 61 1011.5
20260507100012 15 188 1.6 9.7 0.00 0.10 0.10 61 1011.4
20260507094513 16 96 3.2 12.9 0.00 0.10 0.10 61 1011.3
20260507093011 15 188 1.6 12.9 0.00 0.10 0.10 64 1011.0
20260507091512 13 188 1.6 20.9 0.00 0.10 0.10 67 1011.0
20260507090022 14 188 0.0 9.7 0.00 0.10 0.10 69 1010.7
20260507084516 13 188 0.0 9.7 0.00 0.10 0.10 72 1010.7
20260507083016 13 174 3.2 14.5 0.00 0.10 0.10 74 1010.6
20260507081514 13 174 1.6 9.7 0.00 0.10 0.10 74 1010.5
20260507080019 13 277 3.2 19.3 0.00 0.10 0.10 73 1010.7
20260507073019 12 188 0.0 3.2 0.00 0.10 0.10 83 1010.2
20260507071516 11 188 1.6 6.4 0.00 0.10 0.10 85 1010.2
20260507070027 11 188 0.0 9.7 0.00 0.10 0.10 85 1010.1
20260507064514 11 188 0.0 4.8 0.00 0.10 0.10 85 1009.9
20260507061519 11 188 3.2 12.9 0.00 0.10 0.10 83 1009.6
20260507060017 11 188 1.6 11.3 0.00 0.10 0.10 84 1009.5
20260507054524 11 188 3.2 11.3 0.00 0.10 0.10 84 1009.2
20260507053020 11 188 0.0 3.2 0.00 0.10 0.10 87 1009.2
20260507051502 10 188 3.2 11.3 0.00 0.10 0.10 87 1009.0
20260507050006 9 188 1.6 4.8 0.00 0.10 0.10 91 1008.8
20260507044509 9 188 0.0 3.2 0.00 0.10 0.10 91 1008.7
20260507043021 8 188 0.0 1.6 0.00 0.10 0.10 91 1008.4
20260507041503 8 188 1.6 4.8 0.00 0.10 0.10 91 1008.1
20260507040005 8 188 0.0 1.6 0.00 0.10 0.10 90 1008.0
20260507033012 9 188 0.0 3.2 0.00 0.10 0.10 90 1008.1
20260507030004 9 188 0.0 1.6 0.08 0.10 0.10 90 1007.8
20260507024509 10 188 0.0 0.0 0.08 0.10 0.10 90 1007.9